Time,TemperatureF,DewpointF,PressureIn,WindDirection,WindDirectionDegrees,WindSpeedMPH,WindSpeedGustMPH,Humidity,HourlyPrecipIn,Conditions,Clouds,dailyrainin,SoftwareType,DateUTC
2013-10-20 00:04:00,47.3,38.4,29.42,SW,221,0.0,0.0,71,0.00,,,0.00,Wunderground v.1.15,2013-10-20 05:04:00,
2013-10-20 00:09:00,47.1,38.5,29.42,SSW,207,0.0,0.0,72,0.00,,,0.00,Wunderground v.1.15,2013-10-20 05:09:00,
2013-10-20 00:15:00,46.9,38.3,29.42,SSW,209,0.0,0.0,72,0.00,,,0.00,Wunderground v.1.15,2013-10-20 05:15:00,
2013-10-20 00:20:00,46.6,38.4,29.42,SSW,197,0.0,0.0,73,0.00,,,0.00,Wunderground v.1.15,2013-10-20 05:20:00,
2013-10-20 00:26:00,46.5,38.7,29.42,SSW,199,0.0,3.0,74,0.00,,,0.00,Wunderground v.1.15,2013-10-20 05:26:00,
2013-10-20 00:32:00,46.6,38.8,29.42,SSW,201,0.0,1.0,74,0.00,,,0.00,Wunderground v.1.15,2013-10-20 05:32:00,
2013-10-20 00:37:00,46.7,38.5,29.41,SSW,202,1.0,1.0,73,0.00,,,0.00,Wunderground v.1.15,2013-10-20 05:37:00,
2013-10-20 00:43:00,46.8,38.6,29.41,SSW,211,1.0,4.0,73,0.00,,,0.00,Wunderground v.1.15,2013-10-20 05:43:00,
2013-10-20 00:48:00,46.7,38.9,29.41,SSW,199,1.0,5.0,74,0.00,,,0.00,Wunderground v.1.15,2013-10-20 05:48:00,
2013-10-20 00:54:00,46.8,38.6,29.41,South,186,1.0,4.0,73,0.00,,,0.00,Wunderground v.1.15,2013-10-20 05:54:00,
2013-10-20 01:00:00,46.7,38.9,29.41,SSW,195,1.0,1.0,74,0.00,,,0.00,Wunderground v.1.15,2013-10-20 06:00:00,
2013-10-20 01:05:00,-22.3,-99.9,29.41,SSW,198,1.0,5.0,255,0.00,,,0.00,Wunderground v.1.15,2013-10-20 06:05:00,
2013-10-20 01:11:00,47.3,38.4,29.41,South,183,2.0,3.0,71,0.00,,,0.00,Wunderground v.1.15,2013-10-20 06:11:00,
2013-10-20 01:16:00,46.9,39.0,29.40,South,176,3.0,8.0,74,0.00,,,0.00,Wunderground v.1.15,2013-10-20 06:16:00,
2013-10-20 01:22:00,46.8,38.9,29.41,SW,217,2.0,5.0,74,0.00,,,0.00,Wunderground v.1.15,2013-10-20 06:22:00,
2013-10-20 01:28:00,47.7,39.5,29.41,South,178,2.0,10.0,73,0.00,,,0.00,Wunderground v.1.15,2013-10-20 06:28:00,
2013-10-20 01:33:00,46.7,39.2,29.40,South,171,4.0,5.0,75,0.00,,,0.00,Wunderground v.1.15,2013-10-20 06:33:00,
2013-10-20 01:39:00,46.5,39.0,29.41,SSW,201,4.0,8.0,75,0.00,,,0.00,Wunderground v.1.15,2013-10-20 06:39:00,
2013-10-20 01:44:00,46.5,39.0,29.40,SSW,203,3.0,7.0,75,0.00,,,0.00,Wunderground v.1.15,2013-10-20 06:44:00,
2013-10-20 01:50:00,46.5,39.0,29.40,South,183,3.0,3.0,75,0.00,,,0.00,Wunderground v.1.15,2013-10-20 06:50:00,
2013-10-20 01:56:00,46.3,38.8,29.40,South,171,3.0,8.0,75,0.00,,,0.00,Wunderground v.1.15,2013-10-20 06:56:00,
2013-10-20 02:01:00,46.1,39.0,29.40,SSW,207,3.0,3.0,76,0.00,,,0.00,Wunderground v.1.15,2013-10-20 07:01:00,
2013-10-20 02:07:00,46.1,38.6,29.40,South,180,2.0,7.0,75,0.00,,,0.00,Wunderground v.1.15,2013-10-20 07:07:00,
2013-10-20 02:12:00,46.2,39.1,29.40,South,180,2.0,3.0,76,0.00,,,0.00,Wunderground v.1.15,2013-10-20 07:12:00,
2013-10-20 02:18:00,45.8,38.7,29.40,South,172,2.0,6.0,76,0.00,,,0.00,Wunderground v.1.15,2013-10-20 07:18:00,
2013-10-20 02:23:00,45.5,38.7,29.40,South,184,2.0,6.0,77,0.00,,,0.00,Wunderground v.1.15,2013-10-20 07:23:00,
2013-10-20 02:29:00,45.4,38.6,29.39,South,186,2.0,2.0,77,0.00,,,0.00,Wunderground v.1.15,2013-10-20 07:29:00,
2013-10-20 02:35:00,45.2,38.4,29.39,South,179,2.0,6.0,77,0.00,,,0.00,Wunderground v.1.15,2013-10-20 07:35:00,
2013-10-20 02:41:00,45.1,38.3,29.39,SSW,194,2.0,5.0,77,0.00,,,0.00,Wunderground v.1.15,2013-10-20 07:41:00,
2013-10-20 02:47:00,45.3,44.8,29.39,South,189,2.0,5.0,98,0.00,,,0.00,Wunderground v.1.15,2013-10-20 07:47:00,
2013-10-20 02:53:00,45.1,38.3,29.39,South,175,2.0,5.0,77,0.00,,,0.00,Wunderground v.1.15,2013-10-20 07:53:00,
2013-10-20 02:58:00,44.9,38.5,29.39,South,181,2.0,5.0,78,0.00,,,0.00,Wunderground v.1.15,2013-10-20 07:58:00,
2013-10-20 03:04:00,44.8,38.4,29.39,South,175,2.0,6.0,78,0.00,,,0.00,Wunderground v.1.15,2013-10-20 08:04:00,
2013-10-20 03:10:00,44.7,38.3,29.38,South,175,2.0,2.0,78,0.00,,,0.00,Wunderground v.1.15,2013-10-20 08:10:00,
2013-10-20 03:15:00,44.5,38.4,29.38,SSW,195,2.0,9.0,79,0.00,,,0.00,Wunderground v.1.15,2013-10-20 08:15:00,
2013-10-20 03:21:00,44.4,38.3,29.38,South,170,2.0,4.0,79,0.00,,,0.00,Wunderground v.1.15,2013-10-20 08:21:00,
2013-10-20 03:26:00,44.2,38.1,29.38,South,175,2.0,4.0,79,0.00,,,0.00,Wunderground v.1.15,2013-10-20 08:26:00,
2013-10-20 03:32:00,44.1,38.3,29.38,SSE,166,2.0,2.0,80,0.00,,,0.00,Wunderground v.1.15,2013-10-20 08:32:00,
2013-10-20 03:38:00,44.0,38.2,29.38,South,183,1.0,6.0,80,0.00,,,0.00,Wunderground v.1.15,2013-10-20 08:38:00,
2013-10-20 03:43:00,43.8,38.0,29.37,South,171,2.0,6.0,80,0.00,,,0.00,Wunderground v.1.15,2013-10-20 08:43:00,
2013-10-20 03:49:00,43.7,38.3,29.37,South,169,1.0,6.0,81,0.00,,,0.00,Wunderground v.1.15,2013-10-20 08:49:00,
2013-10-20 03:54:00,43.7,38.3,29.37,South,183,2.0,4.0,81,0.00,,,0.00,Wunderground v.1.15,2013-10-20 08:54:00,
2013-10-20 04:00:00,43.6,38.2,29.37,South,186,2.0,2.0,81,0.00,,,0.00,Wunderground v.1.15,2013-10-20 09:00:00,
2013-10-20 04:06:00,43.7,38.3,29.37,SSW,213,1.0,4.0,81,0.00,,,0.00,Wunderground v.1.15,2013-10-20 09:06:00,
2013-10-20 04:11:00,43.6,38.2,29.37,South,170,2.0,2.0,81,0.00,,,0.00,Wunderground v.1.15,2013-10-20 09:11:00,
2013-10-20 04:16:00,43.8,38.3,29.37,SSE,166,2.0,2.0,81,0.00,,,0.00,Wunderground v.1.15,2013-10-20 09:16:00,
2013-10-20 04:22:00,43.4,38.0,29.37,South,180,2.0,4.0,81,0.00,,,0.00,Wunderground v.1.15,2013-10-20 09:22:00,
2013-10-20 04:27:00,43.3,38.2,29.37,South,176,2.0,7.0,82,0.00,,,0.00,Wunderground v.1.15,2013-10-20 09:27:00,
2013-10-20 04:33:00,43.2,38.1,29.37,SSE,156,2.0,6.0,82,0.00,,,0.00,Wunderground v.1.15,2013-10-20 09:33:00,
2013-10-20 04:39:00,43.2,38.1,29.36,South,175,2.0,6.0,82,0.00,,,0.00,Wunderground v.1.15,2013-10-20 09:39:00,
2013-10-20 04:44:00,43.2,38.1,29.37,South,169,2.0,5.0,82,0.00,,,0.00,Wunderground v.1.15,2013-10-20 09:44:00,
2013-10-20 04:50:00,43.2,-99.9,29.36,South,187,3.0,6.0,255,0.00,,,0.00,Wunderground v.1.15,2013-10-20 09:50:00,
2013-10-20 04:55:00,43.1,38.3,29.36,SSE,165,3.0,6.0,83,0.00,,,0.00,Wunderground v.1.15,2013-10-20 09:55:00,
2013-10-20 05:00:00,43.1,38.3,29.36,South,188,3.0,4.0,83,0.00,,,0.00,Wunderground v.1.15,2013-10-20 10:00:00,
2013-10-20 05:06:00,43.1,38.3,29.36,South,171,3.0,7.0,83,0.00,,,0.00,Wunderground v.1.15,2013-10-20 10:06:00,
2013-10-20 05:11:00,43.1,38.3,29.36,South,180,3.0,5.0,83,0.00,,,0.00,Wunderground v.1.15,2013-10-20 10:11:00,
2013-10-20 05:17:00,43.1,38.3,29.36,South,170,3.0,5.0,83,0.00,,,0.00,Wunderground v.1.15,2013-10-20 10:17:00,
2013-10-20 05:22:00,43.1,38.3,29.36,South,180,3.0,5.0,83,0.00,,,0.00,Wunderground v.1.15,2013-10-20 10:22:00,
2013-10-20 05:27:00,43.1,38.3,29.36,SSE,167,3.0,6.0,83,0.00,,,0.00,Wunderground v.1.15,2013-10-20 10:27:00,
2013-10-20 05:33:00,43.1,38.3,29.36,South,175,3.0,7.0,83,0.00,,,0.00,Wunderground v.1.15,2013-10-20 10:33:00,
2013-10-20 05:38:00,43.0,38.2,29.36,South,186,4.0,8.0,83,0.00,,,0.00,Wunderground v.1.15,2013-10-20 10:38:00,
2013-10-20 05:44:00,43.0,38.2,29.36,SSW,194,4.0,7.0,83,0.00,,,0.00,Wunderground v.1.15,2013-10-20 10:44:00,
2013-10-20 05:50:00,43.0,38.2,29.36,South,184,3.0,5.0,83,0.00,,,0.00,Wunderground v.1.15,2013-10-20 10:50:00,
2013-10-20 05:56:00,43.1,38.3,29.36,SSE,151,3.0,6.0,83,0.00,,,0.00,Wunderground v.1.15,2013-10-20 10:56:00,
2013-10-20 06:01:00,43.1,38.3,29.36,South,173,3.0,5.0,83,0.00,,,0.00,Wunderground v.1.15,2013-10-20 11:01:00,
2013-10-20 06:07:00,43.2,38.1,29.36,South,184,3.0,5.0,82,0.00,,,0.00,Wunderground v.1.15,2013-10-20 11:07:00,
2013-10-20 06:13:00,43.2,38.1,29.36,South,178,3.0,5.0,82,0.00,,,0.00,Wunderground v.1.15,2013-10-20 11:13:00,
2013-10-20 06:19:00,43.2,38.1,29.36,South,173,3.0,6.0,82,0.00,,,0.00,Wunderground v.1.15,2013-10-20 11:19:00,
2013-10-20 06:24:00,43.2,38.1,29.36,SSE,166,3.0,7.0,82,0.00,,,0.00,Wunderground v.1.15,2013-10-20 11:24:00,
2013-10-20 06:29:00,43.3,38.2,29.36,South,188,3.0,3.0,82,0.00,,,0.00,Wunderground v.1.15,2013-10-20 11:29:00,
2013-10-20 06:35:00,43.3,38.2,29.36,South,187,3.0,5.0,82,0.00,,,0.00,Wunderground v.1.15,2013-10-20 11:35:00,
2013-10-20 06:40:00,43.3,38.2,29.36,SSE,165,3.0,7.0,82,0.00,,,0.00,Wunderground v.1.15,2013-10-20 11:40:00,
2013-10-20 06:46:00,43.4,38.3,29.35,South,185,3.0,7.0,82,0.00,,,0.00,Wunderground v.1.15,2013-10-20 11:46:00,
2013-10-20 06:51:00,43.4,38.3,29.36,South,182,3.0,4.0,82,0.00,,,0.00,Wunderground v.1.15,2013-10-20 11:51:00,
2013-10-20 06:56:00,43.5,38.4,29.36,SSE,165,3.0,8.0,82,0.00,,,0.00,Wunderground v.1.15,2013-10-20 11:56:00,
2013-10-20 07:02:00,43.5,38.4,29.35,South,176,3.0,7.0,82,0.00,,,0.00,Wunderground v.1.15,2013-10-20 12:02:00,
2013-10-20 07:07:00,43.6,38.2,29.36,SSW,194,3.0,7.0,81,0.00,,,0.00,Wunderground v.1.15,2013-10-20 12:07:00,
2013-10-20 07:13:00,43.7,38.3,29.36,South,173,3.0,5.0,81,0.00,,,0.00,Wunderground v.1.15,2013-10-20 12:13:00,
2013-10-20 07:19:00,43.8,38.3,29.35,SSE,157,3.0,6.0,81,0.00,,,0.00,Wunderground v.1.15,2013-10-20 12:19:00,
2013-10-20 07:25:00,44.0,38.5,29.36,SSE,163,3.0,5.0,81,0.00,,,0.00,Wunderground v.1.15,2013-10-20 12:25:00,
2013-10-20 07:30:00,44.1,38.6,29.36,South,169,3.0,5.0,81,0.00,,,0.00,Wunderground v.1.15,2013-10-20 12:30:00,
2013-10-20 07:35:00,44.3,38.8,29.35,South,188,3.0,6.0,81,0.00,,,0.00,Wunderground v.1.15,2013-10-20 12:35:00,
2013-10-20 07:41:00,44.5,38.7,29.36,SSE,157,3.0,6.0,80,0.00,,,0.00,Wunderground v.1.15,2013-10-20 12:41:00,
2013-10-20 07:46:00,44.8,39.0,29.35,South,184,4.0,6.0,80,0.00,,,0.00,Wunderground v.1.15,2013-10-20 12:46:00,
2013-10-20 07:52:00,45.0,38.9,29.36,SSE,164,4.0,4.0,79,0.00,,,0.00,Wunderground v.1.15,2013-10-20 12:52:00,
2013-10-20 07:57:00,45.2,39.1,29.36,South,184,3.0,9.0,79,0.00,,,0.00,Wunderground v.1.15,2013-10-20 12:57:00,
2013-10-20 08:03:00,45.5,39.0,29.36,South,171,4.0,9.0,78,0.00,,,0.00,Wunderground v.1.15,2013-10-20 13:03:00,
2013-10-20 08:08:00,45.7,39.2,29.36,SSW,202,4.0,9.0,78,0.00,,,0.00,Wunderground v.1.15,2013-10-20 13:08:00,
2013-10-20 08:14:00,45.8,39.3,29.36,South,175,5.0,8.0,78,0.00,,,0.00,Wunderground v.1.15,2013-10-20 13:14:00,
2013-10-20 08:19:00,46.0,39.2,29.36,South,178,6.0,8.0,77,0.00,,,0.00,Wunderground v.1.15,2013-10-20 13:19:00,
2013-10-20 08:25:00,46.4,38.9,29.36,South,178,5.0,7.0,75,0.00,,,0.00,Wunderground v.1.15,2013-10-20 13:25:00,
2013-10-20 08:30:00,46.4,39.6,29.36,South,175,5.0,5.0,77,0.00,,,0.00,Wunderground v.1.15,2013-10-20 13:30:00,
2013-10-20 08:35:00,46.7,39.5,29.36,SSE,163,5.0,10.0,76,0.00,,,0.00,Wunderground v.1.15,2013-10-20 13:35:00,
2013-10-20 08:41:00,47.0,39.8,29.37,SSW,196,5.0,7.0,76,0.00,,,0.00,Wunderground v.1.15,2013-10-20 13:41:00,
2013-10-20 08:46:00,47.2,39.7,29.36,South,175,5.0,9.0,75,0.00,,,0.00,Wunderground v.1.15,2013-10-20 13:46:00,
2013-10-20 08:52:00,47.5,40.0,29.37,South,179,5.0,10.0,75,0.00,,,0.00,Wunderground v.1.15,2013-10-20 13:52:00,
2013-10-20 08:57:00,47.6,40.1,29.37,SSW,193,4.0,10.0,75,0.00,,,0.00,Wunderground v.1.15,2013-10-20 13:57:00,
2013-10-20 09:02:00,47.9,40.4,29.37,SSW,212,3.0,3.0,75,0.00,,,0.00,Wunderground v.1.15,2013-10-20 14:02:00,
2013-10-20 09:08:00,48.4,40.5,29.37,SSW,205,2.0,6.0,74,0.00,,,0.00,Wunderground v.1.15,2013-10-20 14:08:00,
2013-10-20 09:14:00,48.6,40.3,29.37,SSW,192,4.0,7.0,73,0.00,,,0.00,Wunderground v.1.15,2013-10-20 14:14:00,
2013-10-20 09:19:00,48.7,40.4,29.37,South,180,5.0,5.0,73,0.00,,,0.00,Wunderground v.1.15,2013-10-20 14:19:00,
2013-10-20 09:25:00,49.0,40.7,29.37,South,172,5.0,7.0,73,0.00,,,0.00,Wunderground v.1.15,2013-10-20 14:25:00,
2013-10-20 09:30:00,49.6,41.3,29.37,SSW,201,5.0,6.0,73,0.00,,,0.00,Wunderground v.1.15,2013-10-20 14:30:00,
2013-10-20 09:36:00,50.3,41.6,29.37,South,184,4.0,8.0,72,0.00,,,0.00,Wunderground v.1.15,2013-10-20 14:36:00,
2013-10-20 09:41:00,51.0,41.6,29.37,South,176,5.0,5.0,70,0.00,,,0.00,Wunderground v.1.15,2013-10-20 14:41:00,
2013-10-20 09:46:00,51.5,41.7,29.36,SSE,167,4.0,5.0,69,0.00,,,0.00,Wunderground v.1.15,2013-10-20 14:46:00,
2013-10-20 09:52:00,52.1,41.9,29.36,South,175,5.0,12.0,68,0.00,,,0.00,Wunderground v.1.15,2013-10-20 14:52:00,
2013-10-20 09:57:00,52.6,41.9,29.36,SSW,196,7.0,12.0,67,0.00,,,0.00,Wunderground v.1.15,2013-10-20 14:57:00,
2013-10-20 10:03:00,53.1,42.4,29.36,South,179,5.0,6.0,67,0.00,,,0.00,Wunderground v.1.15,2013-10-20 15:03:00,
2013-10-20 10:08:00,53.5,42.0,29.36,South,185,4.0,9.0,65,0.00,,,0.00,Wunderground v.1.15,2013-10-20 15:08:00,
2013-10-20 10:14:00,53.9,42.8,29.36,SW,224,6.0,8.0,66,0.00,,,0.00,Wunderground v.1.15,2013-10-20 15:14:00,
2013-10-20 10:19:00,54.4,42.5,29.36,SSW,196,5.0,12.0,64,0.00,,,0.00,Wunderground v.1.15,2013-10-20 15:19:00,
2013-10-20 10:24:00,55.0,42.6,29.36,South,179,4.0,7.0,63,0.00,,,0.00,Wunderground v.1.15,2013-10-20 15:24:00,
2013-10-20 10:30:00,55.2,42.4,29.36,South,179,5.0,14.0,62,0.00,,,0.00,Wunderground v.1.15,2013-10-20 15:30:00,
2013-10-20 10:35:00,55.5,42.3,29.36,South,171,5.0,14.0,61,0.00,,,0.00,Wunderground v.1.15,2013-10-20 15:35:00,
2013-10-20 10:40:00,56.0,42.7,29.36,SSE,153,5.0,13.0,61,0.00,,,0.00,Wunderground v.1.15,2013-10-20 15:40:00,
2013-10-20 10:46:00,56.6,42.9,29.35,SSE,160,5.0,13.0,60,0.00,,,0.00,Wunderground v.1.15,2013-10-20 15:46:00,
2013-10-20 10:51:00,57.4,42.7,29.35,SW,227,4.0,12.0,58,0.00,,,0.00,Wunderground v.1.15,2013-10-20 15:51:00,
2013-10-20 10:57:00,57.7,42.1,29.35,South,188,4.0,12.0,56,0.00,,,0.00,Wunderground v.1.15,2013-10-20 15:57:00,
2013-10-20 11:03:00,57.8,42.7,29.35,SW,217,3.0,6.0,57,0.00,,,0.00,Wunderground v.1.15,2013-10-20 16:03:00,
2013-10-20 11:08:00,58.2,43.0,29.35,SSE,159,3.0,9.0,57,0.00,,,0.00,Wunderground v.1.15,2013-10-20 16:08:00,
2013-10-20 11:13:00,59.1,42.9,29.35,South,180,5.0,8.0,55,0.00,,,0.00,Wunderground v.1.15,2013-10-20 16:13:00,
2013-10-20 11:19:00,59.6,42.9,29.35,SSW,197,5.0,13.0,54,0.00,,,0.00,Wunderground v.1.15,2013-10-20 16:19:00,
2013-10-20 11:24:00,59.9,43.2,29.35,South,174,8.0,16.0,54,0.00,,,0.00,Wunderground v.1.15,2013-10-20 16:24:00,
2013-10-20 11:30:00,60.4,42.7,29.35,SSE,155,8.0,8.0,52,0.00,,,0.00,Wunderground v.1.15,2013-10-20 16:30:00,
2013-10-20 11:35:00,61.1,43.3,29.34,SSW,192,7.0,10.0,52,0.00,,,0.00,Wunderground v.1.15,2013-10-20 16:35:00,
2013-10-20 11:41:00,61.4,43.1,29.34,South,186,8.0,9.0,51,0.00,,,0.00,Wunderground v.1.15,2013-10-20 16:41:00,
2013-10-20 11:42:00,61.5,42.7,29.34,SSE,165,8.0,9.0,50,0.00,,,0.00,Wunderground v.1.15,2013-10-20 16:42:00,
2013-10-20 11:47:00,61.9,43.0,29.34,SSW,210,8.0,11.0,50,0.00,,,0.00,Wunderground v.1.15,2013-10-20 16:47:00,
2013-10-20 11:53:00,62.6,42.6,29.34,SSW,198,8.0,11.0,48,0.00,,,0.00,Wunderground v.1.15,2013-10-20 16:53:00,
2013-10-20 11:58:00,63.0,43.0,29.33,SE,146,7.0,13.0,48,0.00,,,0.00,Wunderground v.1.15,2013-10-20 16:58:00,
2013-10-20 12:04:00,63.3,43.3,29.33,South,177,7.0,8.0,48,0.00,,,0.00,Wunderground v.1.15,2013-10-20 17:04:00,
2013-10-20 12:09:00,63.6,43.5,29.33,SSE,166,7.0,17.0,48,0.00,,,0.00,Wunderground v.1.15,2013-10-20 17:09:00,
2013-10-20 12:14:00,63.9,43.3,29.33,South,173,7.0,12.0,47,0.00,,,0.00,Wunderground v.1.15,2013-10-20 17:14:00,
2013-10-20 12:20:00,64.4,42.6,29.33,South,190,7.0,7.0,45,0.00,,,0.00,Wunderground v.1.15,2013-10-20 17:20:00,
2013-10-20 12:25:00,64.7,42.9,29.33,SE,140,6.0,10.0,45,0.00,,,0.00,Wunderground v.1.15,2013-10-20 17:25:00,
2013-10-20 12:31:00,65.2,43.9,29.32,South,178,7.0,7.0,46,0.00,,,0.00,Wunderground v.1.15,2013-10-20 17:31:00,
2013-10-20 12:36:00,65.6,44.3,29.32,South,186,5.0,7.0,46,0.00,,,0.00,Wunderground v.1.15,2013-10-20 17:36:00,
2013-10-20 12:41:00,66.1,43.5,29.32,SE,142,5.0,8.0,44,0.00,,,0.00,Wunderground v.1.15,2013-10-20 17:41:00,
2013-10-20 12:46:00,66.3,43.1,29.31,South,174,7.0,16.0,43,0.00,,,0.00,Wunderground v.1.15,2013-10-20 17:46:00,
2013-10-20 12:52:00,66.7,44.1,29.31,South,169,6.0,8.0,44,0.00,,,0.00,Wunderground v.1.15,2013-10-20 17:52:00,
2013-10-20 12:57:00,67.1,43.8,29.31,SSW,192,6.0,13.0,43,0.00,,,0.00,Wunderground v.1.15,2013-10-20 17:57:00,
2013-10-20 13:03:00,67.4,44.1,29.31,South,184,7.0,15.0,43,0.00,,,0.00,Wunderground v.1.15,2013-10-20 18:03:00,
2013-10-20 13:08:00,67.7,43.8,29.30,SSW,192,7.0,15.0,42,0.00,,,0.00,Wunderground v.1.15,2013-10-20 18:08:00,
2013-10-20 13:13:00,68.3,43.0,29.30,SSE,148,8.0,13.0,40,0.00,,,0.00,Wunderground v.1.15,2013-10-20 18:13:00,
2013-10-20 13:19:00,68.5,42.6,29.30,SSE,166,8.0,13.0,39,0.00,,,0.00,Wunderground v.1.15,2013-10-20 18:19:00,
2013-10-20 13:24:00,69.3,43.3,29.30,SW,227,9.0,11.0,39,0.00,,,0.00,Wunderground v.1.15,2013-10-20 18:24:00,
2013-10-20 13:30:00,68.8,42.8,29.30,South,188,8.0,8.0,39,0.00,,,0.00,Wunderground v.1.15,2013-10-20 18:30:00,
2013-10-20 13:35:00,-999.9,-99.9,29.30,SSW,205,8.0,12.0,39,0.00,,,0.00,Wunderground v.1.15,2013-10-20 18:35:00,
2013-10-20 13:40:00,69.6,42.9,29.29,WSW,241,7.0,9.0,38,0.00,,,0.00,Wunderground v.1.15,2013-10-20 18:40:00,
2013-10-20 13:46:00,70.0,43.2,29.29,South,188,5.0,10.0,38,0.00,,,0.00,Wunderground v.1.15,2013-10-20 18:46:00,
2013-10-20 13:51:00,70.4,41.4,29.29,South,171,6.0,12.0,35,0.00,,,0.00,Wunderground v.1.15,2013-10-20 18:51:00,
2013-10-20 13:57:00,70.7,41.7,29.29,SSW,206,8.0,12.0,35,0.00,,,0.00,Wunderground v.1.15,2013-10-20 18:57:00,
2013-10-20 14:02:00,71.0,42.0,29.29,SSW,207,9.0,11.0,35,0.00,,,0.00,Wunderground v.1.15,2013-10-20 19:02:00,
2013-10-20 14:08:00,70.7,41.7,29.29,South,182,10.0,16.0,35,0.00,,,0.00,Wunderground v.1.15,2013-10-20 19:08:00,
2013-10-20 14:13:00,70.8,40.3,29.28,South,182,10.0,19.0,33,0.00,,,0.00,Wunderground v.1.15,2013-10-20 19:13:00,
2013-10-20 14:18:00,71.3,41.5,29.28,SW,217,9.0,21.0,34,0.00,,,0.00,Wunderground v.1.15,2013-10-20 19:18:00,
2013-10-20 14:23:00,71.9,41.2,29.28,South,169,8.0,15.0,33,0.00,,,0.00,Wunderground v.1.15,2013-10-20 19:23:00,
2013-10-20 14:29:00,71.5,42.4,29.28,SSW,199,8.0,15.0,35,0.00,,,0.00,Wunderground v.1.15,2013-10-20 19:29:00,
2013-10-20 14:34:00,72.2,42.3,29.28,SW,216,5.0,16.0,34,0.00,,,0.00,Wunderground v.1.15,2013-10-20 19:34:00,
2013-10-20 14:40:00,72.0,42.1,29.28,SSW,208,7.0,7.0,34,0.00,,,0.00,Wunderground v.1.15,2013-10-20 19:40:00,
2013-10-20 14:45:00,72.2,41.5,29.28,South,171,9.0,13.0,33,0.00,,,0.00,Wunderground v.1.15,2013-10-20 19:45:00,
2013-10-20 14:50:00,72.3,40.8,29.28,WSW,245,9.0,17.0,32,0.00,,,0.00,Wunderground v.1.15,2013-10-20 19:50:00,
2013-10-20 14:56:00,72.1,41.4,29.28,South,183,8.0,17.0,33,0.00,,,0.00,Wunderground v.1.15,2013-10-20 19:56:00,
2013-10-20 15:01:00,72.5,41.7,29.28,SSW,194,7.0,10.0,33,0.00,,,0.00,Wunderground v.1.15,2013-10-20 20:01:00,
2013-10-20 15:07:00,71.9,41.2,29.28,SSW,200,8.0,19.0,33,0.00,,,0.00,Wunderground v.1.15,2013-10-20 20:07:00,
2013-10-20 15:12:00,71.7,41.0,29.28,SSW,196,8.0,16.0,33,0.00,,,0.00,Wunderground v.1.15,2013-10-20 20:12:00,
2013-10-20 15:17:00,-999.9,-99.9,29.28,WSW,250,9.0,20.0,33,0.00,,,0.00,Wunderground v.1.15,2013-10-20 20:17:00,
2013-10-20 15:23:00,71.2,41.4,29.28,SW,221,10.0,10.0,34,0.00,,,0.00,Wunderground v.1.15,2013-10-20 20:23:00,
2013-10-20 15:28:00,71.8,41.9,29.28,SSE,167,8.0,10.0,34,0.00,,,0.00,Wunderground v.1.15,2013-10-20 20:28:00,
2013-10-20 15:34:00,-999.9,-99.9,29.28,SSW,196,9.0,12.0,33,0.00,,,0.00,Wunderground v.1.15,2013-10-20 20:34:00,
2013-10-20 15:39:00,71.9,41.2,29.28,South,187,10.0,15.0,33,0.00,,,0.00,Wunderground v.1.15,2013-10-20 20:39:00,
2013-10-20 15:44:00,71.4,40.8,29.28,SW,215,11.0,17.0,33,0.00,,,0.00,Wunderground v.1.15,2013-10-20 20:44:00,
2013-10-20 15:50:00,71.2,41.4,29.28,South,175,11.0,11.0,34,0.00,,,0.00,Wunderground v.1.15,2013-10-20 20:50:00,
2013-10-20 15:55:00,70.4,41.4,29.28,SSW,202,10.0,13.0,35,0.00,,,0.00,Wunderground v.1.15,2013-10-20 20:55:00,
2013-10-20 16:00:00,-999.9,-99.9,29.28,SSW,212,9.0,9.0,35,0.00,,,0.00,Wunderground v.1.15,2013-10-20 21:00:00,
2013-10-20 16:06:00,-999.9,-99.9,29.28,SSW,192,8.0,10.0,34,0.00,,,0.00,Wunderground v.1.15,2013-10-20 21:06:00,
2013-10-20 16:11:00,70.3,40.6,29.28,SSW,211,10.0,12.0,34,0.00,,,0.00,Wunderground v.1.15,2013-10-20 21:11:00,
2013-10-20 16:17:00,70.4,40.7,29.29,WSW,240,10.0,12.0,34,0.00,,,0.00,Wunderground v.1.15,2013-10-20 21:17:00,
2013-10-20 16:22:00,70.7,40.9,29.28,SW,225,10.0,17.0,34,0.00,,,0.00,Wunderground v.1.15,2013-10-20 21:22:00,
2013-10-20 16:27:00,70.8,41.0,29.29,South,181,9.0,17.0,34,0.00,,,0.00,Wunderground v.1.15,2013-10-20 21:27:00,
2013-10-20 16:33:00,72.2,42.3,29.28,SSW,192,8.0,13.0,34,0.00,,,0.00,Wunderground v.1.15,2013-10-20 21:33:00,
2013-10-20 16:38:00,71.2,41.4,29.29,West,268,7.0,13.0,34,0.00,,,0.00,Wunderground v.1.15,2013-10-20 21:38:00,
2013-10-20 16:44:00,71.3,40.7,29.28,SW,230,8.0,18.0,33,0.00,,,0.00,Wunderground v.1.15,2013-10-20 21:44:00,
2013-10-20 16:49:00,71.0,41.2,29.28,SSW,207,9.0,9.0,34,0.00,,,0.00,Wunderground v.1.15,2013-10-20 21:49:00,
2013-10-20 16:54:00,70.8,40.3,29.28,South,175,9.0,13.0,33,0.00,,,0.00,Wunderground v.1.15,2013-10-20 21:54:00,
2013-10-20 17:00:00,70.4,40.7,29.29,South,174,8.0,8.0,34,0.00,,,0.00,Wunderground v.1.15,2013-10-20 22:00:00,
2013-10-20 17:06:00,-999.9,-99.9,29.29,South,180,6.0,8.0,34,0.00,,,0.00,Wunderground v.1.15,2013-10-20 22:06:00,
2013-10-20 17:11:00,69.8,40.9,29.28,SW,222,6.0,14.0,35,0.00,,,0.00,Wunderground v.1.15,2013-10-20 22:11:00,
2013-10-20 17:16:00,69.5,40.6,29.29,South,186,5.0,14.0,35,0.00,,,0.00,Wunderground v.1.15,2013-10-20 22:16:00,
2013-10-20 17:22:00,69.4,39.8,29.29,South,172,6.0,11.0,34,0.00,,,0.00,Wunderground v.1.15,2013-10-20 22:22:00,
2013-10-20 17:27:00,69.2,39.6,29.29,SSW,195,9.0,19.0,34,0.00,,,0.00,Wunderground v.1.15,2013-10-20 22:27:00,
2013-10-20 17:32:00,68.9,39.4,29.29,SSW,205,7.0,11.0,34,0.00,,,0.00,Wunderground v.1.15,2013-10-20 22:32:00,
2013-10-20 17:38:00,68.7,39.9,29.29,SW,219,6.0,11.0,35,0.00,,,0.00,Wunderground v.1.15,2013-10-20 22:38:00,
2013-10-20 17:43:00,68.6,39.8,29.29,SW,234,6.0,7.0,35,0.00,,,0.00,Wunderground v.1.15,2013-10-20 22:43:00,
2013-10-20 17:49:00,68.4,40.4,29.29,South,190,5.0,9.0,36,0.00,,,0.00,Wunderground v.1.15,2013-10-20 22:49:00,
2013-10-20 17:54:00,68.1,40.8,29.30,South,190,4.0,8.0,37,0.00,,,0.00,Wunderground v.1.15,2013-10-20 22:54:00,
2013-10-20 18:00:00,67.9,40.7,29.29,South,190,3.0,3.0,37,0.00,,,0.00,Wunderground v.1.15,2013-10-20 23:00:00,
2013-10-20 18:06:00,67.7,40.5,29.30,SSW,198,3.0,6.0,37,0.00,,,0.00,Wunderground v.1.15,2013-10-20 23:06:00,
2013-10-20 18:11:00,67.6,39.7,29.30,SSW,200,6.0,15.0,36,0.00,,,0.00,Wunderground v.1.15,2013-10-20 23:11:00,
2013-10-20 18:17:00,67.6,39.7,29.30,SW,226,8.0,15.0,36,0.00,,,0.00,Wunderground v.1.15,2013-10-20 23:17:00,
2013-10-20 18:23:00,67.4,40.2,29.30,South,183,7.0,8.0,37,0.00,,,0.00,Wunderground v.1.15,2013-10-20 23:23:00,
2013-10-20 18:28:00,67.2,40.0,29.30,South,176,4.0,8.0,37,0.00,,,0.00,Wunderground v.1.15,2013-10-20 23:28:00,
2013-10-20 18:34:00,67.0,39.9,29.31,South,174,4.0,7.0,37,0.00,,,0.00,Wunderground v.1.15,2013-10-20 23:34:00,
2013-10-20 18:40:00,66.8,39.7,29.31,SW,218,5.0,6.0,37,0.00,,,0.00,Wunderground v.1.15,2013-10-20 23:40:00,
2013-10-20 18:46:00,66.5,40.1,29.32,SSW,201,4.0,6.0,38,0.00,,,0.00,Wunderground v.1.15,2013-10-20 23:46:00,
2013-10-20 18:51:00,66.1,39.7,29.32,SSW,205,2.0,2.0,38,0.00,,,0.00,Wunderground v.1.15,2013-10-20 23:51:00,
2013-10-20 18:57:00,65.9,40.2,29.32,SSW,209,1.0,5.0,39,0.00,,,0.00,Wunderground v.1.15,2013-10-20 23:57:00,
2013-10-20 19:03:00,65.5,40.5,29.32,SSW,205,1.0,4.0,40,0.00,,,0.00,Wunderground v.1.15,2013-10-21 00:03:00,
2013-10-20 19:09:00,65.3,40.3,29.32,SSW,203,1.0,4.0,40,0.00,,,0.00,Wunderground v.1.15,2013-10-21 00:09:00,
2013-10-20 19:14:00,65.0,40.1,29.33,SSW,204,0.0,1.0,40,0.00,,,0.00,Wunderground v.1.15,2013-10-21 00:14:00,
2013-10-20 19:19:00,64.7,40.4,29.33,SSW,202,0.0,0.0,41,0.00,,,0.00,Wunderground v.1.15,2013-10-21 00:19:00,
2013-10-20 19:25:00,64.5,40.3,29.33,SSW,200,0.0,0.0,41,0.00,,,0.00,Wunderground v.1.15,2013-10-21 00:25:00,
2013-10-20 19:31:00,64.4,40.8,29.33,SSW,202,0.0,0.0,42,0.00,,,0.00,Wunderground v.1.15,2013-10-21 00:31:00,
2013-10-20 19:36:00,64.3,40.7,29.33,South,186,1.0,6.0,42,0.00,,,0.00,Wunderground v.1.15,2013-10-21 00:36:00,
2013-10-20 19:42:00,64.3,41.3,29.33,SSW,202,1.0,3.0,43,0.00,,,0.00,Wunderground v.1.15,2013-10-21 00:42:00,
2013-10-20 19:47:00,64.2,41.2,29.33,SSW,210,1.0,4.0,43,0.00,,,0.00,Wunderground v.1.15,2013-10-21 00:47:00,
2013-10-20 19:53:00,64.4,41.4,29.34,SSW,193,1.0,1.0,43,0.00,,,0.00,Wunderground v.1.15,2013-10-21 00:53:00,
2013-10-20 19:59:00,63.9,41.5,29.34,SSW,205,1.0,2.0,44,0.00,,,0.00,Wunderground v.1.15,2013-10-21 00:59:00,
2013-10-20 20:04:00,65.3,42.8,29.34,SW,214,0.0,1.0,44,0.00,,,0.00,Wunderground v.1.15,2013-10-21 01:04:00,
2013-10-20 20:10:00,63.7,41.4,29.34,South,190,0.0,0.0,44,0.00,,,0.00,Wunderground v.1.15,2013-10-21 01:10:00,
2013-10-20 20:15:00,63.6,41.9,29.34,SSW,202,1.0,1.0,45,0.00,,,0.00,Wunderground v.1.15,2013-10-21 01:15:00,
2013-10-20 20:21:00,63.4,41.7,29.34,SSW,198,0.0,0.0,45,0.00,,,0.00,Wunderground v.1.15,2013-10-21 01:21:00,
2013-10-20 20:26:00,63.2,42.1,29.34,SSW,196,0.0,0.0,46,0.00,,,0.00,Wunderground v.1.15,2013-10-21 01:26:00,
2013-10-20 20:32:00,63.0,41.9,29.34,SSW,195,0.0,0.0,46,0.00,,,0.00,Wunderground v.1.15,2013-10-21 01:32:00,
2013-10-20 20:37:00,62.8,41.7,29.34,SSW,200,1.0,3.0,46,0.00,,,0.00,Wunderground v.1.15,2013-10-21 01:37:00,
2013-10-20 20:43:00,62.7,42.2,29.34,SSW,197,1.0,3.0,47,0.00,,,0.00,Wunderground v.1.15,2013-10-21 01:43:00,
2013-10-20 20:49:00,62.6,42.1,29.34,SSW,198,1.0,5.0,47,0.00,,,0.00,Wunderground v.1.15,2013-10-21 01:49:00,
2013-10-20 20:54:00,62.6,42.1,29.34,SSW,193,3.0,9.0,47,0.00,,,0.00,Wunderground v.1.15,2013-10-21 01:54:00,
2013-10-20 21:00:00,62.5,42.0,29.34,South,191,3.0,3.0,47,0.00,,,0.00,Wunderground v.1.15,2013-10-21 02:00:00,
2013-10-20 21:05:00,62.3,41.8,29.34,South,190,1.0,6.0,47,0.00,,,0.00,Wunderground v.1.15,2013-10-21 02:05:00,
2013-10-20 21:11:00,62.5,-99.9,29.35,South,188,1.0,1.0,255,0.00,,,0.00,Wunderground v.1.15,2013-10-21 02:11:00,
2013-10-20 21:16:00,62.1,42.2,29.35,South,191,1.0,6.0,48,0.00,,,0.00,Wunderground v.1.15,2013-10-21 02:16:00,
2013-10-20 21:22:00,61.7,41.8,29.35,South,175,1.0,1.0,48,0.00,,,0.00,Wunderground v.1.15,2013-10-21 02:22:00,
2013-10-20 21:28:00,61.5,42.2,29.35,SSW,211,1.0,4.0,49,0.00,,,0.00,Wunderground v.1.15,2013-10-21 02:28:00,
2013-10-20 21:33:00,61.9,42.0,29.35,SSW,196,1.0,3.0,48,0.00,,,0.00,Wunderground v.1.15,2013-10-21 02:33:00,
2013-10-20 21:39:00,61.3,41.4,29.35,South,182,3.0,7.0,48,0.00,,,0.00,Wunderground v.1.15,2013-10-21 02:39:00,
2013-10-20 21:44:00,61.3,41.4,29.36,South,189,3.0,5.0,48,0.00,,,0.00,Wunderground v.1.15,2013-10-21 02:44:00,
2013-10-20 21:50:00,61.3,41.4,29.36,SSW,204,2.0,2.0,48,0.00,,,0.00,Wunderground v.1.15,2013-10-21 02:50:00,
2013-10-20 21:55:00,61.3,41.4,29.36,South,175,3.0,9.0,48,0.00,,,0.00,Wunderground v.1.15,2013-10-21 02:55:00,
2013-10-20 22:01:00,61.3,41.4,29.36,SSW,197,4.0,11.0,48,0.00,,,0.00,Wunderground v.1.15,2013-10-21 03:01:00,
2013-10-20 22:06:00,61.5,40.5,29.36,South,178,3.0,11.0,46,0.00,,,0.00,Wunderground v.1.15,2013-10-21 03:06:00,
2013-10-20 22:12:00,61.4,-99.9,29.36,SSW,197,2.0,5.0,255,0.00,,,0.00,Wunderground v.1.15,2013-10-21 03:12:00,
2013-10-20 22:18:00,61.2,41.3,29.36,SSW,207,1.0,5.0,48,0.00,,,0.00,Wunderground v.1.15,2013-10-21 03:18:00,
2013-10-20 22:23:00,61.1,41.2,29.37,SW,221,1.0,4.0,48,0.00,,,0.00,Wunderground v.1.15,2013-10-21 03:23:00,
2013-10-20 22:28:00,61.0,41.7,29.37,WSW,241,1.0,5.0,49,0.00,,,0.00,Wunderground v.1.15,2013-10-21 03:28:00,
2013-10-20 22:34:00,60.9,41.6,29.38,West,270,0.0,1.0,49,0.00,,,0.00,Wunderground v.1.15,2013-10-21 03:34:00,
2013-10-20 22:40:00,60.8,42.0,29.38,WSW,238,0.0,0.0,50,0.00,,,0.00,Wunderground v.1.15,2013-10-21 03:40:00,
2013-10-20 22:45:00,60.7,41.9,29.37,SW,234,0.0,0.0,50,0.00,,,0.00,Wunderground v.1.15,2013-10-21 03:45:00,
2013-10-20 22:51:00,60.5,41.8,29.37,SW,234,0.0,0.0,50,0.00,,,0.00,Wunderground v.1.15,2013-10-21 03:51:00,
2013-10-20 22:56:00,60.3,42.6,29.38,SW,216,0.0,2.0,52,0.00,,,0.00,Wunderground v.1.15,2013-10-21 03:56:00,
2013-10-20 23:02:00,60.1,42.4,29.38,SSW,210,0.0,0.0,52,0.00,,,0.00,Wunderground v.1.15,2013-10-21 04:02:00,
2013-10-20 23:03:00,60.1,42.4,29.38,SSW,210,0.0,0.0,52,0.00,,,0.00,Wunderground v.1.15,2013-10-21 04:03:00,
2013-10-20 23:04:00,60.1,42.4,29.38,SSW,210,0.0,0.0,52,0.00,,,0.00,Wunderground v.1.15,2013-10-21 04:04:00,
2013-10-20 23:05:00,60.0,42.3,29.38,SSW,210,0.0,0.0,52,0.00,,,0.00,Wunderground v.1.15,2013-10-21 04:05:00,
2013-10-20 23:06:00,60.0,42.3,29.38,SSW,210,0.0,0.0,52,0.00,,,0.00,Wunderground v.1.15,2013-10-21 04:06:00,
2013-10-20 23:11:00,59.9,42.2,29.38,SSW,205,1.0,1.0,52,0.00,,,0.00,Wunderground v.1.15,2013-10-21 04:11:00,
2013-10-20 23:17:00,59.9,42.2,29.38,SSW,200,1.0,1.0,52,0.00,,,0.00,Wunderground v.1.15,2013-10-21 04:17:00,
2013-10-20 23:23:00,59.8,42.1,29.38,SSW,203,1.0,1.0,52,0.00,,,0.00,Wunderground v.1.15,2013-10-21 04:23:00,
2013-10-20 23:28:00,59.7,42.0,29.38,SW,216,1.0,8.0,52,0.00,,,0.00,Wunderground v.1.15,2013-10-21 04:28:00,
2013-10-20 23:34:00,59.6,41.9,29.38,SSW,201,1.0,5.0,52,0.00,,,0.00,Wunderground v.1.15,2013-10-21 04:34:00,
2013-10-20 23:39:00,59.6,41.9,29.38,SSW,209,0.0,5.0,52,0.00,,,0.00,Wunderground v.1.15,2013-10-21 04:39:00,
2013-10-20 23:44:00,59.5,41.9,29.38,SSW,199,0.0,1.0,52,0.00,,,0.00,Wunderground v.1.15,2013-10-21 04:44:00,
2013-10-20 23:50:00,59.5,42.3,29.38,SSW,196,0.0,1.0,53,0.00,,,0.00,Wunderground v.1.15,2013-10-21 04:50:00,
2013-10-20 23:56:00,59.5,41.9,29.38,SW,218,1.0,2.0,52,0.00,,,0.00,Wunderground v.1.15,2013-10-21 04:56:00,